Location: Brotuna
(46.2000°N, 22.6000°E)
Time: 02:17:08
(UTC+00:00)

Cosmos 1934 Rocket - Pass Details

Date: 09 April 2020
Orbit: 937 x 1000 km, 83.0° (Epoch: 04 June)

Event Time Altitude Azimuth Distance (km) Brightness Sun altitude
Rises 20:18:26 0° 353° (N) 3,695 7.9 -28.3°
Reaches altitude 10° 20:21:00 10° 355° (N) 2,734 7.0 -28.5°
Enters shadow 20:27:01 70° 62° (ENE) 1,024 3.9 -29.2°
